Time,TemperatureF,DewpointF,PressureIn,WindDirection,WindDirectionDegrees,WindSpeedMPH,WindSpeedGustMPH,Humidity,HourlyPrecipIn,Conditions,Clouds,dailyrainin,SoftwareType,DateUTC
2013-11-28 00:00:00,30.3,27.2,29.57,West,266,0.0,7.0,88,0.00,,,1.26,Wunderground v.1.15,2013-11-28 05:00:00,
2013-11-28 00:10:00,30.3,26.9,29.57,WSW,242,0.0,0.0,87,0.00,,,0.00,Wunderground v.1.15,2013-11-28 05:10:00,
2013-11-28 00:20:00,30.1,26.7,29.59,West,260,0.0,0.0,87,0.00,,,0.00,Wunderground v.1.15,2013-11-28 05:20:00,
2013-11-28 00:30:00,30.1,26.7,29.60,WSW,254,0.0,0.0,87,0.00,,,0.00,Wunderground v.1.15,2013-11-28 05:30:00,
2013-11-28 00:40:00,30.0,26.6,29.60,West,268,0.0,0.0,87,0.00,,,0.00,Wunderground v.1.15,2013-11-28 05:40:00,
2013-11-28 00:50:00,30.0,26.3,29.60,WSW,237,0.0,0.0,86,0.00,,,0.00,Wunderground v.1.15,2013-11-28 05:50:00,
2013-11-28 01:00:00,29.8,26.4,29.62,WNW,289,0.0,0.0,87,0.00,,,0.00,Wunderground v.1.15,2013-11-28 06:00:00,
2013-11-28 01:10:00,29.8,26.1,29.62,WSW,245,0.0,0.0,86,0.00,,,0.00,Wunderground v.1.15,2013-11-28 06:10:00,
2013-11-28 01:20:00,29.7,26.3,29.62,WSW,245,0.0,0.0,87,0.00,,,0.00,Wunderground v.1.15,2013-11-28 06:20:00,
2013-11-28 01:30:00,29.5,26.4,29.63,WSW,245,0.0,0.0,88,0.00,,,0.00,Wunderground v.1.15,2013-11-28 06:30:00,
2013-11-28 01:40:00,29.4,26.0,29.63,West,264,0.0,0.0,87,0.00,,,0.00,Wunderground v.1.15,2013-11-28 06:40:00,
2013-11-28 01:50:00,29.1,25.7,29.65,West,264,0.0,0.0,87,0.00,,,0.00,Wunderground v.1.15,2013-11-28 06:50:00,
2013-11-28 02:00:00,29.1,25.7,29.65,WSW,245,0.0,0.0,87,0.00,,,0.00,Wunderground v.1.15,2013-11-28 07:00:00,
2013-11-28 02:10:00,29.3,26.2,29.65,West,264,0.0,0.0,88,0.00,,,0.00,Wunderground v.1.15,2013-11-28 07:10:00,
2013-11-28 02:20:00,29.4,26.3,29.67,SSW,212,0.0,0.0,88,0.00,,,0.00,Wunderground v.1.15,2013-11-28 07:20:00,
2013-11-28 02:30:00,29.3,25.9,29.68,NE,54,0.0,0.0,87,0.00,,,0.00,Wunderground v.1.15,2013-11-28 07:30:00,
2013-11-28 02:40:00,29.1,25.7,29.68,West,264,1.0,1.0,87,0.00,,,0.00,Wunderground v.1.15,2013-11-28 07:40:00,
2013-11-28 02:50:00,28.4,25.0,29.69,West,279,2.0,3.0,87,0.00,,,0.00,Wunderground v.1.15,2013-11-28 07:50:00,
2013-11-28 03:00:00,27.9,24.3,29.71,WNW,283,2.0,2.0,86,0.00,,,0.00,Wunderground v.1.15,2013-11-28 08:00:00,
2013-11-28 03:10:00,27.6,23.7,29.71,WNW,290,1.0,1.0,85,0.00,,,0.00,Wunderground v.1.15,2013-11-28 08:10:00,
2013-11-28 03:20:00,27.2,21.5,29.72,SSW,197,1.0,1.0,79,0.00,,,0.00,Wunderground v.1.15,2013-11-28 08:20:00,
2013-11-28 03:30:00,26.7,20.5,29.74,WSW,252,2.0,6.0,77,0.00,,,0.00,Wunderground v.1.15,2013-11-28 08:30:00,
2013-11-28 03:40:00,26.3,20.1,29.74,WSW,243,2.0,2.0,77,0.00,,,0.00,Wunderground v.1.15,2013-11-28 08:40:00,
2013-11-28 03:50:00,25.8,19.0,29.75,WSW,244,1.0,2.0,75,0.00,,,0.00,Wunderground v.1.15,2013-11-28 08:50:00,
2013-11-28 04:00:00,25.1,18.3,29.77,ESE,121,1.0,1.0,75,0.00,,,0.00,Wunderground v.1.15,2013-11-28 09:00:00,
2013-11-28 04:10:00,24.5,17.1,29.77,SSW,199,0.0,0.0,73,0.00,,,0.00,Wunderground v.1.15,2013-11-28 09:10:00,
2013-11-28 04:20:00,24.2,17.4,29.78,WSW,245,0.0,0.0,75,0.00,,,0.00,Wunderground v.1.15,2013-11-28 09:20:00,
2013-11-28 04:30:00,23.9,16.8,29.80,WSW,239,0.0,0.0,74,0.00,,,0.00,Wunderground v.1.15,2013-11-28 09:30:00,
2013-11-28 04:40:00,23.8,16.4,29.80,SE,143,0.0,0.0,73,0.00,,,0.00,Wunderground v.1.15,2013-11-28 09:40:00,
2013-11-28 04:50:00,23.5,16.1,29.82,SSW,197,0.0,0.0,73,0.00,,,0.00,Wunderground v.1.15,2013-11-28 09:50:00,
2013-11-28 05:00:00,23.2,15.8,29.84,West,268,0.0,2.0,73,0.00,,,0.00,Wunderground v.1.15,2013-11-28 10:00:00,
2013-11-28 05:10:00,23.2,15.5,29.84,SW,233,1.0,1.0,72,0.00,,,0.00,Wunderground v.1.15,2013-11-28 10:10:00,
2013-11-28 05:20:00,22.9,14.6,29.86,West,280,1.0,1.0,70,0.00,,,0.00,Wunderground v.1.15,2013-11-28 10:20:00,
2013-11-28 05:30:00,22.5,13.9,29.87,West,262,1.0,3.0,69,0.00,,,0.00,Wunderground v.1.15,2013-11-28 10:30:00,
2013-11-28 05:40:00,22.4,13.8,29.87,SW,224,3.0,3.0,69,0.00,,,0.00,Wunderground v.1.15,2013-11-28 10:40:00,
2013-11-28 05:50:00,22.1,13.5,29.89,SW,222,1.0,5.0,69,0.00,,,0.00,Wunderground v.1.15,2013-11-28 10:50:00,
2013-11-28 06:00:00,21.9,13.6,29.91,WNW,282,1.0,2.0,70,0.00,,,0.00,Wunderground v.1.15,2013-11-28 11:00:00,
2013-11-28 06:10:00,21.6,13.0,29.91,SW,235,1.0,5.0,69,0.00,,,0.00,Wunderground v.1.15,2013-11-28 11:10:00,
2013-11-28 06:20:00,21.4,12.8,29.92,WNW,289,1.0,2.0,69,0.00,,,0.00,Wunderground v.1.15,2013-11-28 11:20:00,
2013-11-28 06:30:00,21.3,12.4,29.94,WSW,255,2.0,2.0,68,0.00,,,0.00,Wunderground v.1.15,2013-11-28 11:30:00,
2013-11-28 06:40:00,21.1,12.5,29.94,WSW,249,2.0,2.0,69,0.00,,,0.00,Wunderground v.1.15,2013-11-28 11:40:00,
2013-11-28 06:50:00,21.0,12.4,29.96,West,267,1.0,1.0,69,0.00,,,0.00,Wunderground v.1.15,2013-11-28 11:50:00,
2013-11-28 07:00:00,21.1,12.2,29.98,West,276,3.0,5.0,68,0.00,,,0.00,Wunderground v.1.15,2013-11-28 12:00:00,
2013-11-28 07:10:00,21.1,13.5,29.98,WNW,284,2.0,9.0,72,0.00,,,0.00,Wunderground v.1.15,2013-11-28 12:10:00,
2013-11-28 07:20:00,20.6,13.0,30.00,West,273,3.0,9.0,72,0.00,,,0.00,Wunderground v.1.15,2013-11-28 12:20:00,
2013-11-28 07:30:00,20.2,11.7,30.02,West,269,5.0,9.0,69,0.00,,,0.00,Wunderground v.1.15,2013-11-28 12:30:00,
2013-11-28 07:40:00,19.4,10.2,30.02,West,262,5.0,9.0,67,0.00,,,0.00,Wunderground v.1.15,2013-11-28 12:40:00,
2013-11-28 07:50:00,19.1,10.3,30.04,West,262,4.0,4.0,68,0.00,,,0.00,Wunderground v.1.15,2013-11-28 12:50:00,
2013-11-28 08:00:00,19.1,10.3,30.05,West,269,4.0,4.0,68,0.00,,,0.00,Wunderground v.1.15,2013-11-28 13:00:00,
2013-11-28 08:10:00,18.6,9.5,30.05,WSW,257,1.0,1.0,67,0.00,,,0.00,Wunderground v.1.15,2013-11-28 13:10:00,
2013-11-28 08:20:00,18.1,9.6,30.07,WNW,293,2.0,9.0,69,0.00,,,0.00,Wunderground v.1.15,2013-11-28 13:20:00,
2013-11-28 08:30:00,18.3,8.5,30.08,West,272,4.0,4.0,65,0.00,,,0.00,Wunderground v.1.15,2013-11-28 13:30:00,
2013-11-28 08:40:00,18.8,10.0,30.08,WNW,284,2.0,9.0,68,0.00,,,0.00,Wunderground v.1.15,2013-11-28 13:40:00,
2013-11-28 08:50:00,18.9,8.7,30.09,West,268,3.0,9.0,64,0.00,,,0.00,Wunderground v.1.15,2013-11-28 13:50:00,
2013-11-28 09:00:00,19.1,8.6,30.10,West,271,3.0,3.0,63,0.00,,,0.00,Wunderground v.1.15,2013-11-28 14:00:00,
2013-11-28 09:10:00,19.2,9.0,30.10,SSE,152,2.0,2.0,64,0.00,,,0.00,Wunderground v.1.15,2013-11-28 14:10:00,
2013-11-28 09:20:00,19.2,8.3,30.12,WSW,249,3.0,9.0,62,0.00,,,0.00,Wunderground v.1.15,2013-11-28 14:20:00,
2013-11-28 09:30:00,19.1,7.5,30.13,SW,220,4.0,9.0,60,0.00,,,0.00,Wunderground v.1.15,2013-11-28 14:30:00,
2013-11-28 09:40:00,19.4,8.5,30.13,West,260,4.0,4.0,62,0.00,,,0.00,Wunderground v.1.15,2013-11-28 14:40:00,
2013-11-28 09:50:00,19.9,8.6,30.14,South,189,3.0,3.0,61,0.00,,,0.00,Wunderground v.1.15,2013-11-28 14:50:00,
2013-11-28 10:00:00,20.3,7.5,30.14,West,260,4.0,9.0,57,0.00,,,0.00,Wunderground v.1.15,2013-11-28 15:00:00,
2013-11-28 10:10:00,20.5,7.7,30.14,West,270,6.0,6.0,57,0.00,,,0.00,Wunderground v.1.15,2013-11-28 15:10:00,
2013-11-28 10:20:00,20.6,7.8,30.15,WSW,245,6.0,6.0,57,0.00,,,0.00,Wunderground v.1.15,2013-11-28 15:20:00,
2013-11-28 10:30:00,21.1,8.2,30.15,WSW,249,4.0,9.0,57,0.00,,,0.00,Wunderground v.1.15,2013-11-28 15:30:00,
2013-11-28 10:40:00,21.4,8.1,30.15,WSW,240,5.0,5.0,56,0.00,,,0.00,Wunderground v.1.15,2013-11-28 15:40:00,
2013-11-28 10:50:00,21.8,8.9,30.15,West,263,6.0,6.0,57,0.00,,,0.00,Wunderground v.1.15,2013-11-28 15:50:00,
2013-11-28 11:00:00,22.1,9.2,30.16,West,270,4.0,9.0,57,0.00,,,0.00,Wunderground v.1.15,2013-11-28 16:00:00,
2013-11-28 11:10:00,22.4,8.7,30.16,West,272,5.0,9.0,55,0.00,,,0.00,Wunderground v.1.15,2013-11-28 16:10:00,
2013-11-28 11:20:00,22.7,9.3,30.17,WSW,240,3.0,3.0,56,0.00,,,0.00,Wunderground v.1.15,2013-11-28 16:20:00,
2013-11-28 11:30:00,23.2,9.8,30.17,South,185,5.0,5.0,56,0.00,,,0.00,Wunderground v.1.15,2013-11-28 16:30:00,
2013-11-28 11:40:00,23.2,9.0,30.17,West,260,5.0,5.0,54,0.00,,,0.00,Wunderground v.1.15,2013-11-28 16:40:00,
2013-11-28 11:50:00,23.5,9.7,30.18,West,267,4.0,4.0,55,0.00,,,0.00,Wunderground v.1.15,2013-11-28 16:50:00,
2013-11-28 12:00:00,23.9,8.4,30.18,WSW,237,4.0,4.0,51,0.00,,,0.00,Wunderground v.1.15,2013-11-28 17:00:00,
2013-11-28 12:10:00,24.8,8.3,30.18,SW,218,2.0,3.0,49,0.00,,,0.00,Wunderground v.1.15,2013-11-28 17:10:00,
2013-11-28 12:20:00,25.6,9.1,30.19,SW,225,1.0,3.0,49,0.00,,,0.00,Wunderground v.1.15,2013-11-28 17:20:00,
2013-11-28 12:30:00,25.6,9.5,30.20,West,260,2.0,3.0,50,0.00,,,0.01,Wunderground v.1.15,2013-11-28 17:30:00,
2013-11-28 12:40:00,25.0,7.6,30.20,WSW,241,3.0,4.0,47,0.00,,,0.01,Wunderground v.1.15,2013-11-28 17:40:00,
2013-11-28 12:50:00,25.0,9.0,30.20,WSW,242,2.0,3.0,50,0.00,,,0.01,Wunderground v.1.15,2013-11-28 17:50:00,
2013-11-28 13:00:00,25.4,8.9,30.20,West,260,3.0,3.0,49,0.00,,,0.01,Wunderground v.1.15,2013-11-28 18:00:00,
2013-11-28 13:10:00,25.6,7.2,30.20,SSW,202,2.0,2.0,45,0.00,,,0.01,Wunderground v.1.15,2013-11-28 18:10:00,
2013-11-28 13:20:00,25.6,9.1,30.21,WSW,248,3.0,3.0,49,0.00,,,0.01,Wunderground v.1.15,2013-11-28 18:20:00,
2013-11-28 13:30:00,25.3,7.4,30.21,WSW,254,5.0,14.0,46,0.00,,,0.01,Wunderground v.1.15,2013-11-28 18:30:00,
2013-11-28 13:40:00,25.1,7.7,30.21,West,260,5.0,14.0,47,0.00,,,0.01,Wunderground v.1.15,2013-11-28 18:40:00,
2013-11-28 13:50:00,24.4,6.1,30.22,WSW,244,5.0,14.0,45,0.00,,,0.01,Wunderground v.1.15,2013-11-28 18:50:00,
2013-11-28 14:00:00,23.8,6.0,30.22,NW,306,5.0,14.0,46,0.00,,,0.01,Wunderground v.1.15,2013-11-28 19:00:00,
2013-11-28 14:10:00,23.8,5.0,30.22,West,274,6.0,6.0,44,0.00,,,0.01,Wunderground v.1.15,2013-11-28 19:10:00,
2013-11-28 14:20:00,24.5,7.6,30.23,SW,235,2.0,2.0,48,0.00,,,0.01,Wunderground v.1.15,2013-11-28 19:20:00,
2013-11-28 14:30:00,24.8,6.9,30.24,WNW,287,5.0,14.0,46,0.00,,,0.01,Wunderground v.1.15,2013-11-28 19:30:00,
2013-11-28 14:40:00,24.5,5.2,30.24,West,262,7.0,7.0,43,0.00,,,0.01,Wunderground v.1.15,2013-11-28 19:40:00,
2013-11-28 14:50:00,24.8,5.4,30.25,WSW,258,5.0,5.0,43,0.00,,,0.01,Wunderground v.1.15,2013-11-28 19:50:00,
2013-11-28 15:00:00,25.1,7.2,30.26,WNW,294,4.0,14.0,46,0.00,,,0.01,Wunderground v.1.15,2013-11-28 20:00:00,
2013-11-28 15:10:00,24.7,5.3,30.26,WSW,241,4.0,14.0,43,0.00,,,0.01,Wunderground v.1.15,2013-11-28 20:10:00,
2013-11-28 15:20:00,24.4,5.1,30.26,SW,228,5.0,5.0,43,0.00,,,0.01,Wunderground v.1.15,2013-11-28 20:20:00,
2013-11-28 15:30:00,24.2,4.9,30.27,WSW,245,3.0,3.0,43,0.00,,,0.01,Wunderground v.1.15,2013-11-28 20:30:00,
2013-11-28 15:40:00,23.9,5.1,30.27,WSW,245,3.0,3.0,44,0.00,,,0.01,Wunderground v.1.15,2013-11-28 20:40:00,
2013-11-28 15:50:00,23.5,6.2,30.27,SW,226,1.0,14.0,47,0.00,,,0.01,Wunderground v.1.15,2013-11-28 20:50:00,
2013-11-28 16:00:00,23.3,4.6,30.28,West,261,2.0,2.0,44,0.00,,,0.01,Wunderground v.1.15,2013-11-28 21:00:00,
2013-11-28 16:10:00,23.0,5.7,30.28,SW,228,1.0,1.0,47,0.00,,,0.01,Wunderground v.1.15,2013-11-28 21:10:00,
2013-11-28 16:20:00,22.4,5.2,30.29,SW,228,0.0,14.0,47,0.00,,,0.01,Wunderground v.1.15,2013-11-28 21:20:00,
2013-11-28 16:30:00,22.2,5.0,30.30,SW,230,1.0,1.0,47,0.00,,,0.01,Wunderground v.1.15,2013-11-28 21:30:00,
2013-11-28 16:40:00,21.8,3.7,30.30,SW,230,0.0,14.0,45,0.00,,,0.01,Wunderground v.1.15,2013-11-28 21:40:00,
2013-11-28 16:50:00,21.8,4.2,30.31,WSW,249,1.0,1.0,46,0.00,,,0.01,Wunderground v.1.15,2013-11-28 21:50:00,
2013-11-28 17:00:00,21.3,4.6,30.32,WSW,249,0.0,14.0,48,0.00,,,0.01,Wunderground v.1.15,2013-11-28 22:00:00,
2013-11-28 17:10:00,21.1,4.0,30.32,WSW,249,0.0,14.0,47,0.00,,,0.01,Wunderground v.1.15,2013-11-28 22:10:00,
2013-11-28 17:20:00,21.0,3.4,30.33,WSW,249,0.0,14.0,46,0.00,,,0.01,Wunderground v.1.15,2013-11-28 22:20:00,
2013-11-28 17:30:00,20.6,3.5,30.34,WSW,249,0.0,14.0,47,0.00,,,0.01,Wunderground v.1.15,2013-11-28 22:30:00,
2013-11-28 17:40:00,20.3,4.2,30.34,WSW,249,0.0,14.0,49,0.00,,,0.01,Wunderground v.1.15,2013-11-28 22:40:00,
2013-11-28 17:50:00,20.0,6.4,30.34,WSW,249,0.0,14.0,55,0.00,,,0.01,Wunderground v.1.15,2013-11-28 22:50:00,
2013-11-28 18:00:00,19.9,3.8,30.35,WSW,253,0.0,14.0,49,0.00,,,0.01,Wunderground v.1.15,2013-11-28 23:00:00,
2013-11-28 18:10:00,20.2,3.6,30.35,WSW,253,1.0,1.0,48,0.00,,,0.01,Wunderground v.1.15,2013-11-28 23:10:00,
2013-11-28 18:20:00,20.0,3.0,30.36,WSW,253,0.0,0.0,47,0.00,,,0.01,Wunderground v.1.15,2013-11-28 23:20:00,
2013-11-28 18:30:00,19.7,5.3,30.36,WSW,253,0.0,0.0,53,0.00,,,0.01,Wunderground v.1.15,2013-11-28 23:30:00,
2013-11-28 18:40:00,19.7,4.9,30.36,WSW,253,0.0,0.0,52,0.00,,,0.01,Wunderground v.1.15,2013-11-28 23:40:00,
2013-11-28 18:50:00,19.4,5.0,30.37,WSW,253,0.0,0.0,53,0.00,,,0.01,Wunderground v.1.15,2013-11-28 23:50:00,
2013-11-28 19:00:00,19.7,4.5,30.38,WSW,253,0.0,0.0,51,0.00,,,0.01,Wunderground v.1.15,2013-11-29 00:00:00,
2013-11-28 19:10:00,19.4,4.6,30.38,WSW,253,0.0,4.0,52,0.00,,,0.01,Wunderground v.1.15,2013-11-29 00:10:00,
2013-11-28 19:20:00,19.7,5.3,30.38,WSW,253,0.0,4.0,53,0.00,,,0.01,Wunderground v.1.15,2013-11-29 00:20:00,
2013-11-28 19:30:00,20.0,3.9,30.38,WSW,253,0.0,4.0,49,0.00,,,0.01,Wunderground v.1.15,2013-11-29 00:30:00,
2013-11-28 19:40:00,20.3,3.7,30.38,WSW,253,0.0,4.0,48,0.00,,,0.01,Wunderground v.1.15,2013-11-29 00:40:00,
2013-11-28 19:50:00,20.3,4.2,30.39,WSW,253,0.0,4.0,49,0.00,,,0.01,Wunderground v.1.15,2013-11-29 00:50:00,
2013-11-28 20:00:00,20.0,5.6,30.40,WSW,253,0.0,4.0,53,0.00,,,0.01,Wunderground v.1.15,2013-11-29 01:00:00,
2013-11-28 20:10:00,19.5,7.1,30.40,WSW,253,0.0,4.0,58,0.00,,,0.01,Wunderground v.1.15,2013-11-29 01:10:00,
2013-11-28 20:20:00,19.1,7.5,30.40,WSW,253,0.0,4.0,60,0.00,,,0.01,Wunderground v.1.15,2013-11-29 01:20:00,
2013-11-28 20:30:00,18.8,7.2,30.40,WSW,253,0.0,4.0,60,0.00,,,0.01,Wunderground v.1.15,2013-11-29 01:30:00,
2013-11-28 20:40:00,18.3,7.1,30.40,WSW,253,0.0,4.0,61,0.00,,,0.01,Wunderground v.1.15,2013-11-29 01:40:00,
2013-11-28 20:50:00,17.8,6.6,30.40,WSW,253,0.0,4.0,61,0.00,,,0.01,Wunderground v.1.15,2013-11-29 01:50:00,
2013-11-28 21:00:00,17.2,6.4,30.41,WSW,253,0.0,4.0,62,0.00,,,0.01,Wunderground v.1.15,2013-11-29 02:00:00,
2013-11-28 21:10:00,17.2,6.8,30.41,WSW,253,0.0,4.0,63,0.00,,,0.01,Wunderground v.1.15,2013-11-29 02:10:00,
2013-11-28 21:20:00,17.2,7.4,30.42,WSW,253,0.0,4.0,65,0.00,,,0.01,Wunderground v.1.15,2013-11-29 02:20:00,
2013-11-28 21:30:00,17.8,7.0,30.42,WSW,253,0.0,4.0,62,0.00,,,0.01,Wunderground v.1.15,2013-11-29 02:30:00,
2013-11-28 21:40:00,17.5,7.7,30.42,WSW,253,0.0,4.0,65,0.00,,,0.01,Wunderground v.1.15,2013-11-29 02:40:00,
2013-11-28 21:50:00,17.7,7.6,30.42,WSW,253,0.0,4.0,64,0.00,,,0.01,Wunderground v.1.15,2013-11-29 02:50:00,
2013-11-28 22:00:00,18.0,7.2,30.42,WSW,253,0.0,4.0,62,0.00,,,0.01,Wunderground v.1.15,2013-11-29 03:00:00,
2013-11-28 22:10:00,18.0,7.9,30.42,WSW,253,0.0,4.0,64,0.00,,,0.01,Wunderground v.1.15,2013-11-29 03:10:00,
2013-11-28 22:20:00,17.0,8.3,30.43,WSW,253,0.0,4.0,68,0.00,,,0.01,Wunderground v.1.15,2013-11-29 03:20:00,
2013-11-28 22:30:00,17.2,8.1,30.43,WSW,253,0.0,4.0,67,0.00,,,0.01,Wunderground v.1.15,2013-11-29 03:30:00,
2013-11-28 22:40:00,17.2,8.8,30.43,WSW,253,0.0,4.0,69,0.00,,,0.01,Wunderground v.1.15,2013-11-29 03:40:00,
2013-11-28 22:50:00,16.9,8.8,30.43,WSW,253,0.0,4.0,70,0.00,,,0.01,Wunderground v.1.15,2013-11-29 03:50:00,
2013-11-28 23:00:00,17.0,9.2,30.44,WSW,253,0.0,4.0,71,0.00,,,0.01,Wunderground v.1.15,2013-11-29 04:00:00,
2013-11-28 23:10:00,16.5,8.7,30.44,WSW,253,0.0,4.0,71,0.00,,,0.01,Wunderground v.1.15,2013-11-29 04:10:00,
2013-11-28 23:20:00,16.4,8.9,30.45,WSW,253,0.0,4.0,72,0.00,,,0.01,Wunderground v.1.15,2013-11-29 04:20:00,
2013-11-28 23:30:00,16.2,9.4,30.45,WSW,253,0.0,4.0,74,0.00,,,0.01,Wunderground v.1.15,2013-11-29 04:30:00,
2013-11-28 23:40:00,16.7,9.8,30.45,WSW,253,0.0,4.0,74,0.00,,,0.01,Wunderground v.1.15,2013-11-29 04:40:00,
2013-11-28 23:50:00,16.7,9.8,30.45,WSW,253,0.0,4.0,74,0.00,,,0.01,Wunderground v.1.15,2013-11-29 04:50:00,